GW6810 Weather Reports


time (UTC)temp
F
wind
direction
speed
knots
gust
knots
rain 1hr
in
rain 24hr
in
rain mn
in
humidity
%
barometer
mb
20260505140510 70 252 7.0 15.6 0.00 0.00 0.00 57 1016.7
20260505125011 64 262 6.1 12.2 0.00 0.00 0.00 66 1017.0
20260505124540 64 169 6.1 13.0 0.00 0.00 0.00 66 1017.0
20260505124012 64 207 4.3 13.0 0.00 0.00 0.00 67 1016.9
20260505123512 64 220 6.1 13.0 0.00 0.00 0.00 67 1016.7
20260505123030 63 234 5.2 13.0 0.00 0.00 0.00 68 1016.7
20260505122512 63 257 7.0 13.0 0.00 0.00 0.00 68 1016.6
20260505122012 63 251 5.2 12.2 0.00 0.00 0.00 69 1016.7
20260505121554 62 223 5.2 12.2 0.00 0.00 0.00 70 1016.5
20260505121013 62 244 6.1 11.3 0.00 0.00 0.00 70 1016.5
20260505120510 62 270 7.0 11.3 0.00 0.00 0.00 70 1016.4
20260505120027 61 269 5.2 10.4 0.00 0.00 0.00 72 1016.5
20260505115512 61 243 6.1 10.4 0.00 0.00 0.00 72 1016.4
20260505115010 61 290 3.5 11.3 0.00 0.00 0.00 73 1016.4
20260505114533 61 227 4.3 11.3 0.00 0.00 0.00 72 1016.4
20260505114009 61 244 2.6 10.4 0.00 0.00 0.00 74 1016.4
20260505113513 60 265 3.5 11.3 0.00 0.00 0.00 73 1016.3
20260505113031 60 223 4.3 11.3 0.00 0.00 0.00 73 1016.3
20260505112511 60 182 4.3 9.6 0.00 0.00 0.00 73 1016.4
20260505112011 60 244 2.6 9.6 0.00 0.00 0.00 74 1016.3
20260505111536 60 230 5.2 9.6 0.00 0.00 0.00 74 1016.3
20260505111011 60 240 1.7 7.8 0.00 0.00 0.00 75 1016.2
20260505110511 60 219 3.5 7.8 0.00 0.00 0.00 73 1016.2
20260505102010 59 226 2.6 8.7 0.00 0.00 0.00 74 1015.6
20260505101528 59 252 2.6 8.7 0.00 0.00 0.00 74 1015.5
20260505101010 59 214 4.3 7.8 0.00 0.00 0.00 73 1015.5
20260505100510 59 176 3.5 7.8 0.00 0.00 0.00 74 1015.5
20260505100036 59 135 1.7 9.6 0.00 0.00 0.00 74 1015.4
20260505095510 59 222 5.2 9.6 0.00 0.00 0.00 73 1015.4
20260505095015 59 154 3.5 11.3 0.00 0.00 0.00 73 1015.4
20260505094530 59 225 4.3 11.3 0.00 0.00 0.00 73 1015.2
20260505094010 60 228 4.3 10.4 0.00 0.00 0.00 73 1015.2
20260505093509 60 238 3.5 7.8 0.00 0.00 0.00 72 1015.3
20260505093031 60 215 3.5 10.4 0.00 0.00 0.00 72 1015.2
20260505092511 60 221 2.6 10.4 0.00 0.00 0.00 71 1015.1
20260505092011 61 257 3.5 8.7 0.00 0.00 0.00 70 1015.0
20260505091535 61 234 1.7 13.0 0.00 0.00 0.00 70 1015.2
20260505091010 61 146 2.6 13.0 0.00 0.00 0.00 70 1015.0
20260505090510 61 238 7.0 13.0 0.00 0.00 0.00 69 1015.0
20260505090028 61 220 5.2 10.4 0.00 0.00 0.00 69 1015.0
20260505085511 61 204 3.5 13.0 0.00 0.00 0.00 69 1015.2
20260505085015 61 226 5.2 13.0 0.00 0.00 0.00 69 1015.0
20260505084528 61 265 4.3 10.4 0.00 0.00 0.00 69 1015.2
20260505084010 61 204 5.2 11.3 0.00 0.00 0.00 68 1015.0
20260505083514 62 221 5.2 11.3 0.00 0.00 0.00 68 1014.9
20260505083041 62 207 6.1 11.3 0.00 0.00 0.00 68 1014.9
20260505082511 62 214 4.3 11.3 0.00 0.00 0.00 68 1014.9
20260505082009 62 165 2.6 11.3 0.00 0.00 0.00 68 1014.9
20260505081532 62 219 6.1 13.9 0.00 0.00 0.00 67 1014.7
20260505081010 62 259 7.8 14.8 0.00 0.00 0.00 67 1014.7
20260505080510 62 233 6.1 15.6 0.00 0.00 0.00 67 1014.8
20260505080043 62 272 8.7 15.6 0.00 0.00 0.00 67 1014.7
20260505075510 62 244 4.3 10.4 0.00 0.00 0.00 67 1014.8
20260505075008 62 196 5.2 13.0 0.00 0.00 0.00 67 1014.9
20260505074528 62 274 5.2 13.0 0.00 0.00 0.00 66 1014.7
20260505074010 62 257 7.0 13.0 0.00 0.00 0.00 66 1014.7
20260505073511 62 277 6.1 13.0 0.00 0.00 0.00 66 1014.8
20260505073031 62 202 6.1 13.0 0.00 0.00 0.00 66 1014.6
20260505072512 63 261 6.1 13.9 0.00 0.00 0.00 66 1014.6
20260505072012 63 216 7.8 13.9 0.00 0.00 0.00 66 1014.5
20260505071538 63 178 6.1 15.6 0.00 0.00 0.00 65 1014.5
20260505071013 63 183 6.1 15.6 0.00 0.00 0.00 65 1014.5
20260505070511 63 136 4.3 14.8 0.00 0.00 0.00 65 1014.3
20260505070031 63 236 5.2 14.8 0.00 0.00 0.00 65 1014.3
20260505065510 63 245 7.8 14.8 0.00 0.00 0.00 65 1014.3
20260505065014 63 222 5.2 13.0 0.00 0.00 0.00 64 1014.4
20260505064530 63 246 7.0 13.9 0.00 0.00 0.00 64 1014.4
20260505064011 63 224 6.1 17.4 0.00 0.00 0.00 64 1014.4
20260505063511 63 214 7.8 17.4 0.00 0.00 0.00 63 1014.4
20260505063042 63 193 7.0 13.0 0.00 0.00 0.00 63 1014.4
20260505062511 64 279 7.0 13.0 0.00 0.00 0.00 63 1014.4
20260505062013 64 256 7.0 16.5 0.00 0.00 0.00 63 1014.4
20260505061533 64 224 4.3 18.2 0.00 0.00 0.00 63 1014.4
20260505061009 64 265 7.0 18.2 0.00 0.00 0.00 63 1014.6
20260505060510 64 281 7.8 18.2 0.00 0.00 0.00 63 1014.5
20260505060027 64 247 7.0 13.0 0.00 0.00 0.00 63 1014.6
20260505055515 64 282 5.2 13.0 0.00 0.00 0.00 63 1014.6
20260505055016 64 219 5.2 12.2 0.00 0.00 0.00 63 1014.6
20260505054541 64 227 3.5 13.0 0.00 0.00 0.00 63 1014.7
20260505054015 64 229 7.0 13.0 0.00 0.00 0.00 63 1014.6
20260505053514 64 173 6.1 12.2 0.00 0.00 0.00 63 1014.8
20260505053030 64 239 6.1 13.0 0.00 0.00 0.00 63 1014.9
20260505052510 64 156 7.0 13.0 0.00 0.00 0.00 63 1014.9
20260505052011 64 192 4.3 12.2 0.00 0.00 0.00 63 1014.9
20260505051538 64 225 4.3 12.2 0.00 0.00 0.00 63 1014.8
20260505051009 65 285 4.3 12.2 0.00 0.00 0.00 62 1014.8
20260505050514 64 273 6.1 10.4 0.00 0.00 0.00 62 1014.8
20260505041543 65 175 9.6 16.5 0.00 0.00 0.00 62 1014.9
20260505041009 65 235 5.2 13.9 0.00 0.00 0.00 62 1014.9
20260505040509 65 220 7.8 13.9 0.00 0.00 0.00 62 1014.8
20260505040030 65 236 7.8 12.2 0.00 0.00 0.00 62 1014.9
20260505035510 65 219 7.0 17.4 0.00 0.00 0.00 62 1014.8
20260505035011 65 224 6.1 17.4 0.00 0.00 0.00 62 1014.8
20260505034530 65 238 7.0 17.4 0.00 0.00 0.00 61 1014.7
20260505034010 65 177 10.4 17.4 0.00 0.00 0.00 61 1014.7
20260505033511 66 202 8.7 16.5 0.00 0.00 0.00 61 1014.7
20260505033028 66 176 9.6 16.5 0.00 0.00 0.00 61 1014.7
20260505032513 66 226 7.0 16.5 0.00 0.00 0.00 61 1014.7
20260505032011 66 264 7.0 19.1 0.00 0.00 0.00 62 1014.6
20260505031532 66 171 8.7 19.1 0.00 0.00 0.00 62 1014.5
20260505031011 66 175 7.0 13.9 0.00 0.00 0.00 62 1014.6
20260505030512 66 232 7.8 13.9 0.00 0.00 0.00 62 1014.6
20260505030028 66 221 6.1 19.1 0.00 0.00 0.00 62 1014.6
20260505025514 66 206 6.1 19.1 0.00 0.00 0.00 62 1014.7
20260505025010 66 182 6.1 17.4 0.00 0.00 0.00 62 1014.8
20260505024529 66 168 7.8 17.4 0.00 0.00 0.00 62 1014.8
20260505024012 66 221 6.1 17.4 0.00 0.00 0.00 62 1014.8
20260505023509 67 178 7.0 18.2 0.00 0.00 0.00 62 1014.8
20260505023031 67 179 9.6 18.2 0.00 0.00 0.00 62 1014.7
20260505022509 67 186 7.8 18.2 0.00 0.00 0.00 62 1014.5
20260505022010 67 235 7.8 16.5 0.00 0.00 0.00 63 1014.6
20260505021528 67 215 7.8 14.8 0.00 0.00 0.00 63 1014.5
20260505021009 67 214 7.0 16.5 0.00 0.00 0.00 62 1014.5
20260505020510 67 196 6.1 16.5 0.00 0.00 0.00 62 1014.6
20260505020033 67 175 7.8 16.5 0.00 0.00 0.00 62 1014.7
20260505015511 67 205 8.7 16.5 0.00 0.00 0.00 62 1014.7
20260505015013 67 177 7.0 15.6 0.00 0.00 0.00 62 1014.5
20260505014531 67 198 7.0 15.6 0.00 0.00 0.00 62 1014.6
20260505014010 68 126 7.0 18.2 0.00 0.00 0.00 62 1014.5
20260505013509 68 214 7.8 18.2 0.00 0.00 0.00 62 1014.5
20260505013028 68 186 7.0 13.9 0.00 0.00 0.00 62 1014.5
20260505012509 68 186 6.1 14.8 0.00 0.00 0.00 61 1014.3
20260505012010 68 211 7.8 14.8 0.00 0.00 0.00 61 1014.4
20260505011533 68 127 7.0 14.8 0.00 0.00 0.00 61 1014.3
20260505011009 68 211 5.2 13.9 0.00 0.00 0.00 61 1014.2
20260505010510 68 236 5.2 15.6 0.00 0.00 0.00 61 1014.0
20260505010032 68 151 7.8 15.6 0.00 0.00 0.00 60 1014.0
20260505005511 69 159 6.1 13.0 0.00 0.00 0.00 60 1013.8
20260505005014 69 171 5.2 18.2 0.00 0.00 0.00 60 1013.8
20260505004531 69 209 8.7 18.2 0.00 0.00 0.00 60 1013.7
20260505004008 69 202 5.2 13.9 0.00 0.00 0.00 59 1013.6
20260505003512 69 170 6.1 12.2 0.00 0.00 0.00 59 1013.6
20260505003031 69 208 6.1 12.2 0.00 0.00 0.00 58 1013.7
20260505002511 70 147 6.1 13.9 0.00 0.00 0.00 58 1013.6
20260505002011 70 178 7.0 18.2 0.00 0.00 0.00 58 1013.5
20260505001533 70 201 6.1 18.2 0.00 0.00 0.00 57 1013.4
20260505001012 70 154 9.6 17.4 0.00 0.00 0.00 57 1013.4
20260505000513 70 151 7.8 15.6 0.00 0.00 0.00 56 1013.3
20260505000037 71 163 5.2 13.0 0.00 0.00 0.00 56 1013.4
20260504235512 71 191 6.1 14.8 0.00 0.00 0.00 55 1013.3
20260504235012 71 152 7.8 14.8 0.00 0.00 0.00 55 1013.3
20260504234528 71 198 7.8 16.5 0.00 0.00 0.00 54 1013.2
20260504234013 72 157 7.0 16.5 0.00 0.00 0.00 53 1013.1
20260504233512 72 147 7.8 14.8 0.00 0.00 0.00 52 1012.8
20260504233028 73 222 4.3 18.2 0.00 0.00 0.00 50 1012.8
20260504232513 73 205 7.8 20.9 0.00 0.00 0.00 50 1012.8
20260504232013 74 209 9.6 20.9 0.00 0.00 0.00 47 1012.7
20260504231533 75 116 7.0 14.8 0.00 0.00 0.00 44 1012.8
20260504231011 75 303 7.0 12.2 0.00 0.00 0.00 37 1012.4
20260504230512 75 164 6.1 17.4 0.00 0.00 0.00 36 1012.6
20260504230031 75 135 8.7 17.4 0.00 0.00 0.00 36 1012.7
20260504225512 76 165 7.0 17.4 0.00 0.00 0.00 36 1012.7
20260504225012 76 275 8.7 17.4 0.00 0.00 0.00 36 1012.8
20260504224532 76 248 7.8 16.5 0.00 0.00 0.00 35 1012.7
20260504224013 77 233 7.8 14.8 0.00 0.00 0.00 36 1012.6
20260504223512 77 246 6.1 18.2 0.00 0.00 0.00 35 1012.7
20260504223031 77 248 4.3 19.1 0.00 0.00 0.00 36 1012.8
20260504222513 77 265 10.4 19.1 0.00 0.00 0.00 35 1012.5
20260504222011 77 327 7.0 18.2 0.00 0.00 0.00 34 1012.6
20260504221528 77 278 8.7 20.9 0.00 0.00 0.00 35 1012.7
20260504221011 77 277 8.7 20.9 0.00 0.00 0.00 34 1012.6
20260504220512 77 233 10.4 23.5 0.00 0.00 0.00 35 1012.6
20260504220032 77 191 10.4 23.5 0.00 0.00 0.00 34 1012.7
20260504215517 77 247 9.6 16.5 0.00 0.00 0.00 34 1012.6
20260504215013 77 252 8.7 15.6 0.00 0.00 0.00 34 1012.7
20260504214539 77 235 5.2 17.4 0.00 0.00 0.00 35 1012.7
20260504214014 77 242 11.3 19.1 0.00 0.00 0.00 34 1012.9
20260504213513 77 221 9.6 19.1 0.00 0.00 0.00 34 1012.9
20260504213031 77 260 7.8 19.1 0.00 0.00 0.00 35 1012.8
20260504212513 77 270 12.2 18.2 0.00 0.00 0.00 34 1012.9
20260504212012 77 230 8.7 20.9 0.00 0.00 0.00 34 1013.0
20260504211530 77 271 9.6 20.9 0.00 0.00 0.00 34 1012.9
20260504211012 78 257 7.0 14.8 0.00 0.00 0.00 34 1012.9
20260504210517 77 211 7.0 14.8 0.00 0.00 0.00 34 1012.9
20260504210030 77 232 6.1 15.6 0.00 0.00 0.00 35 1013.0
20260504205514 77 221 9.6 25.2 0.00 0.00 0.00 34 1013.0
20260504205014 77 215 12.2 25.2 0.00 0.00 0.00 34 1013.0
20260504204529 77 283 8.7 19.1 0.00 0.00 0.00 34 1013.0
20260504204012 77 132 9.6 14.8 0.00 0.00 0.00 34 1012.9
20260504203513 77 240 7.8 13.9 0.00 0.00 0.00 34 1013.0
20260504203034 77 155 5.2 17.4 0.00 0.00 0.00 34 1013.0
20260504202511 77 136 8.7 18.2 0.00 0.00 0.00 34 1013.0
20260504202013 77 221 8.7 18.2 0.00 0.00 0.00 34 1013.0
20260504201529 77 227 5.2 16.5 0.00 0.00 0.00 34 1013.0
20260504201013 77 142 7.0 16.5 0.00 0.00 0.00 35 1013.2
20260504200511 76 198 8.7 19.1 0.00 0.00 0.00 36 1013.0
20260504200033 76 242 10.4 19.1 0.00 0.00 0.00 35 1013.3
20260504195512 76 282 9.6 19.1 0.00 0.00 0.00 35 1013.3
20260504195013 76 222 7.0 22.6 0.00 0.00 0.00 35 1013.2
20260504194528 76 249 11.3 22.6 0.00 0.00 0.00 33 1013.2
20260504194010 76 274 8.7 19.1 0.00 0.00 0.00 35 1013.2
20260504193519 76 271 7.8 18.2 0.00 0.00 0.00 35 1013.3
20260504193030 76 273 7.8 18.2 0.00 0.00 0.00 34 1013.5
20260504192516 76 270 7.8 14.8 0.00 0.00 0.00 35 1013.5
20260504192013 76 267 7.8 13.9 0.00 0.00 0.00 36 1013.6
20260504191528 76 265 7.8 14.8 0.00 0.00 0.00 35 1013.7
20260504191018 76 232 9.6 14.8 0.00 0.00 0.00 36 1013.8
20260504190517 76 275 7.8 17.4 0.00 0.00 0.00 34 1013.8
20260504190031 76 164 8.7 21.7 0.00 0.00 0.00 35 1013.8
20260504185510 76 163 5.2 21.7 0.00 0.00 0.00 37 1013.7
20260504185014 76 252 4.3 17.4 0.00 0.00 0.00 37 1013.8
20260504184535 75 180 8.7 19.1 0.00 0.00 0.00 37 1014.0
20260504184012 75 277 10.4 19.1 0.00 0.00 0.00 36 1014.0
20260504183514 74 287 5.2 18.2 0.00 0.00 0.00 38 1014.0
20260504183035 75 273 7.8 14.8 0.00 0.00 0.00 38 1014.2
20260504182513 75 280 7.0 13.9 0.00 0.00 0.00 38 1014.3
20260504182018 75 239 7.0 24.3 0.00 0.00 0.00 38 1014.4
20260504181528 75 347 7.0 24.3 0.00 0.00 0.00 38 1014.5
20260504181014 74 275 7.0 15.6 0.00 0.00 0.00 39 1014.6
20260504180514 74 323 7.8 15.6 0.00 0.00 0.00 39 1014.7
20260504180028 74 265 7.8 15.6 0.00 0.00 0.00 40 1014.7
20260504175511 73 303 8.7 15.6 0.00 0.00 0.00 40 1014.8
20260504175012 74 267 8.7 17.4 0.00 0.00 0.00 39 1014.8
20260504174530 74 124 5.2 17.4 0.00 0.00 0.00 41 1014.7
20260504174014 74 253 7.8 14.8 0.00 0.00 0.00 40 1014.7
20260504173514 74 250 6.1 16.5 0.00 0.00 0.00 41 1014.8
20260504173030 74 279 7.0 17.4 0.00 0.00 0.00 38 1014.7
20260504172516 73 267 11.3 17.4 0.00 0.00 0.00 39 1014.7
20260504172013 73 173 8.7 19.1 0.00 0.00 0.00 39 1015.1
20260504171528 73 277 7.8 19.1 0.00 0.00 0.00 42 1015.1
20260504171012 73 280 10.4 13.9 0.00 0.00 0.00 43 1015.0
20260504170510 73 292 7.8 14.8 0.00 0.00 0.00 41 1015.1
20260504151010 68 279 9.6 19.1 0.00 0.00 0.00 49 1016.1
20260504150511 68 251 7.8 15.6 0.00 0.00 0.00 50 1016.0